Colima, Mexico

2:02 AM CDT on August 21, 2017 (GMT -0500)
Colima

Weather History for MMIA - November, 2012

Change the Weather History Date:

Wednesday, November 7, 2012

  Actual Average Record
Temperature  
Mean Temperature 82 °F -  
Max Temperature 95 °F 83 °F 95 °F (2012)
Min Temperature 68 °F 67 °F 59 °F (2010)
Cooling Degree Days 16    
Growing Degree Days 32 (Base 50)    
Moisture  
Dew Point 64 °F    
Average Humidity 59    
Maximum Humidity 85    
Minimum Humidity 25    
Precipitation  
Precipitation 0.00 in - - ()
Sea Level Pressure  
Sea Level Pressure 29.99 in    
Wind  
Wind Speed 4 mph ()    
Max Wind Speed 17 mph    
Max Gust Speed -    
Visibility 7.0 miles    
Events      
Averages and records for this station are not official NWS values.
T = Trace of Precipitation, MM = Missing Value Source: Averaged Metar Reports

Daily Weather History Graph

Daily Weather History Graph

Search for Another Location

Airport or City:

Trip Planner

Search our weather history database for the weather conditions in past years. The results will help you decide how hot, cold, wet, or windy it might be!

Date:

Astronomy

Nov. 07, 2012 Rise Set
Actual Time 6:58 AM CST 6:17 PM CST
Civil Twilight 6:35 AM CST 6:40 PM CST
Nautical Twilight 6:08 AM CST 7:06 PM CST
Astronomical Twilight 5:42 AM CST 7:32 PM CST
Moon 12:48 AM CST (11/7) 1:38 PM CST (11/7)
Length of Visible Light 12h 05m
Length of Day
11h 19m
Last Quarter, 43% of the Moon is Illuminated
Nov 7
Last Quarter
Nov 13
New
Nov 20
First Quarter
Nov 28
Full
Dec 6
Last Quarter

Hourly Weather History & Observations

Time (CST) Temp. Heat Index Dew Point Humidity Pressure Visibility Wind Dir Wind Speed Gust Speed Precip Events Conditions
6:00 AM 69.8 °F - 62.6 °F 78% 30.00 in 8.0 mi Calm Calm - N/A   Mostly Cloudy
6:40 AM 69.8 °F - 62.6 °F 78% 30.02 in 8.0 mi North 11.5 mph - N/A   Mostly Cloudy
7:56 AM 71.6 °F - 62.6 °F 73% 30.02 in 8.0 mi NNE 11.5 mph - N/A   Mostly Cloudy
8:40 AM 71.6 °F - 62.6 °F 73% 30.06 in 8.0 mi Calm Calm - N/A   Scattered Clouds
8:48 AM 76 °F - 62 °F 52% 30.03 in 5 mi East 2.2 mph - -   Haze
9:56 AM 78.8 °F - 62.6 °F 57% 30.08 in 8.0 mi Calm Calm - N/A   Scattered Clouds
10:45 AM 80.6 °F 81.5 °F 60.8 °F 51% 30.09 in 8.0 mi Calm Calm - N/A   Scattered Clouds
11:45 AM 84.2 °F 85.0 °F 62.6 °F 48% 30.05 in 8.0 mi NE 17.3 mph - N/A   Scattered Clouds
11:49 AM 88 °F - 60 °F 29% 29.98 in 6 mi NW 2.2 mph - -   Haze
12:40 PM 84.2 °F 85.0 °F 62.6 °F 48% 30.03 in 8.0 mi NNE 11.5 mph - N/A   Scattered Clouds
1:40 PM 84.2 °F 85.0 °F 62.6 °F 48% 29.99 in 8.0 mi NNE 11.5 mph - N/A   Scattered Clouds
2:40 PM 87.8 °F 86.1 °F 55.4 °F 33% 29.96 in 8.0 mi Calm Calm - N/A   Scattered Clouds
2:50 PM 94 °F - 62 °F 25% 29.85 in 6 mi NE 2.2 mph - -   Haze
3:44 PM 87.8 °F 86.5 °F 57.2 °F 35% 29.95 in 8.0 mi Calm Calm - N/A   Scattered Clouds
4:41 PM 84.2 °F 85.6 °F 64.4 °F 51% 29.95 in 8.0 mi SW 9.2 mph - N/A   Scattered Clouds
5:41 PM 78.8 °F - 69.8 °F 74% 29.97 in 8.0 mi West 9.2 mph - N/A   Scattered Clouds
5:48 PM 83 °F - 70 °F 57% 29.86 in 6 mi SE 6.7 mph - -   Haze
6:50 PM 75.2 °F - 68.0 °F 78% 29.99 in 6.0 mi Calm Calm - N/A   Scattered Clouds
7:50 PM 73.4 °F - 66.2 °F 78% 30.02 in 6.0 mi Calm Calm - N/A   Scattered Clouds
8:49 PM 76 °F - 69 °F 73% 29.92 in 5 mi East 2.2 mph - -   Haze
8:50 PM 73.4 °F - 66.2 °F 78% 30.04 in 6.0 mi Calm Calm - N/A   Scattered Clouds
11:49 PM 73 °F - 69 °F 85% 29.96 in 5 mi NE 2.2 mph - -   Haze